Zurück zum Katalog

STARLINK-31923

AktivKommunikationVLEO
NORAD 60600·PAYLOAD·🇺🇸 United States

Gestartet Aug 20, 2024 von Cape Canaveral Space Force Station

Loading…

Nächste Überflüge (nächste 24 Stunden)

TLE

AktuellSource: CelesTrak SupGP

Epoche: Sep 14, 2026, 20:51 UTC

1 60600C 24150T   26257.86923611 -.00049940  00000+0 -14751-2 0  2576
2 60600  53.1581 147.7279 0001274 102.5618 264.4085 15.34424290    15

Verfolge STARLINK-31923 in Echtzeit mit AllMySat

Download on the App Store